Grand Junction, CO

4:42 AM MST on November 12, 2019 (GMT -0700)
Walker

Weather History for KGJT - October, 2019

Change the Weather History Date:

Friday, October 18, 2019

  Actual Average Record
Temperature  
Mean Temperature 49 °F 52 °F  
Max Temperature 64 °F 65 °F 82 °F (1977)
Min Temperature 33 °F 39 °F 25 °F (1917)
Degree Days  
Heating Degree Days 16 13  
Month to date heating degree days 221 169  
Since 1 July heating degree days 254 243  
Cooling Degree Days 0 0  
Month to date cooling degree days 0 1  
Year to date cooling degree days 1287 1123  
Moisture  
Dew Point 24 °F    
Average Humidity 40    
Maximum Humidity 61    
Minimum Humidity 19    
Precipitation  
Precipitation 0.00 in 0.03 in 1.35 in (1908)
Month to date precipitation T 0.65  
Year to date precipitation 7.12 7.69  
Snow  
Snow 0.00 in 0.00 in 0.00 in (2002)
Month to date snowfall 0.0 0.1  
Since 1 July snowfall 0.0 0.1  
Since 1 September snowfall 0.0 0.1  
Snow Depth 0.00 in    
Sea Level Pressure  
Sea Level Pressure 29.72 in    
Wind  
Wind Speed 7 mph (NNW)    
Max Wind Speed 29 mph    
Max Gust Speed 37 mph    
Visibility 10 miles    
Events      
T = Trace of Precipitation, MM = Missing Value Source: NWS Daily Summary

Daily Weather History Graph

Daily Weather History Graph

Search for Another Location

Airport or City:

Astronomy

Oct. 18, 2019 Rise Set
Actual Time 7:26 AM MDT 6:31 PM MDT
Civil Twilight 6:59 AM MDT 6:58 PM MDT
Nautical Twilight 6:28 AM MDT 7:29 PM MDT
Astronomical Twilight 5:57 AM MDT 8:00 PM MDT
Moon 9:52 PM MDT (10/18) 12:01 PM MDT (10/18)
Length of Visible Light 11h 58m
Length of Day
11h 04m
Waning Gibbous, 78% of the Moon is Illuminated
Oct 18
Waning Gibbous
Oct 21
Last Quarter
Oct 27
New
Nov 4
First Quarter
Nov 12
Full

Hourly Weather History & Observations

Time (MDT) Temp. Windchill Dew Point Humidity Pressure Visibility Wind Dir Wind Speed Gust Speed Precip Events Conditions
12:53 AM 60.1 °F - 25.0 °F 26% 29.45 in 10.0 mi SE 9.2 mph - N/A   Clear
1:53 AM 62.1 °F - 25.0 °F 24% 29.44 in 10.0 mi SE 12.7 mph - N/A   Clear
2:53 AM 59.0 °F - 25.0 °F 27% 29.46 in 10.0 mi East 9.2 mph - N/A   Clear
3:53 AM 57.0 °F - 25.0 °F 29% 29.47 in 10.0 mi Calm Calm - N/A   Clear
4:53 AM 59.0 °F - 25.0 °F 27% 29.49 in 10.0 mi North - - N/A   Clear
5:53 AM 57.0 °F - 28.0 °F 33% 29.53 in 10.0 mi NW 4.6 mph - N/A   Scattered Clouds
6:53 AM 53.1 °F - 35.1 °F 50% 29.63 in 10.0 mi NNW 19.6 mph 32.2 mph N/A   Mostly Cloudy
7:53 AM 48.9 °F - 36.0 °F 61% 29.68 in 10.0 mi WNW 9.2 mph - N/A   Scattered Clouds
8:53 AM 51.1 °F - 33.1 °F 50% 29.72 in 10.0 mi NW 6.9 mph - N/A   Mostly Cloudy
9:53 AM 50.0 °F - 34.0 °F 54% 29.77 in 10.0 mi WNW 4.6 mph - N/A   Overcast
10:53 AM 54.0 °F - 33.1 °F 45% 29.77 in 10.0 mi NNE 8.1 mph 18.4 mph N/A   Partly Cloudy
11:53 AM 55.9 °F - 28.9 °F 36% 29.77 in 10.0 mi NNW 6.9 mph 16.1 mph N/A   Partly Cloudy
12:53 PM 60.1 °F - 19.0 °F 20% 29.76 in 10.0 mi WNW 9.2 mph 18.4 mph N/A   Overcast
1:53 PM 59.0 °F - 17.1 °F 20% 29.74 in 10.0 mi WNW 9.2 mph - N/A   Clear
2:53 PM 60.1 °F - 17.1 °F 19% 29.74 in 10.0 mi West 8.1 mph - N/A   Clear
3:53 PM 62.1 °F - 19.9 °F 20% 29.75 in 10.0 mi West 9.2 mph - N/A   Clear
4:53 PM 60.1 °F - 21.0 °F 22% 29.75 in 10.0 mi Calm Calm - N/A   Clear
5:53 PM 60.1 °F - 21.0 °F 22% 29.75 in 10.0 mi East 3.5 mph - N/A   Clear
6:53 PM 52.0 °F - 21.0 °F 30% 29.79 in 10.0 mi ENE 4.6 mph - N/A   Clear
7:53 PM 50.0 °F - 21.9 °F 33% 29.84 in 10.0 mi Calm Calm - N/A   Clear
8:53 PM 48.0 °F - 18.0 °F 30% 29.86 in 10.0 mi ESE 3.5 mph - N/A   Clear
9:53 PM 45.0 °F 39.3 °F 19.0 °F 36% 29.88 in 10.0 mi ESE 11.5 mph - N/A   Clear
10:53 PM 43.0 °F 40.3 °F 19.9 °F 40% 29.90 in 10.0 mi SSW 4.6 mph - N/A   Clear
11:53 PM 36.0 °F - 16.0 °F 44% 29.93 in 10.0 mi Calm Calm - N/A   Clear